Change the Weather History Date:

Monday, November 8, 2010

  Actual Average Record
Temperature  
Mean Temperature 56 °F 44 °F  
Max Temperature 67 °F 53 °F 78 °F (1999)
Min Temperature 44 °F 34 °F -4 °F (1991)
Degree Days  
Heating Degree Days 9 21  
Month to date heating degree days 147 159  
Since 1 July heating degree days 484 643  
Cooling Degree Days 0 0  
Month to date cooling degree days 0 0  
Year to date cooling degree days 1184 946  
Growing Degree Days 5 (Base 50)    
Moisture  
Dew Point 37 °F    
Average Humidity 51    
Maximum Humidity 65    
Minimum Humidity 37    
Precipitation  
Precipitation 0.00 in 0.07 in 0.82 in (2011)
Month to date precipitation 0.00 0.84  
Year to date precipitation 49.43  
Sea Level Pressure  
Sea Level Pressure 29.83 in    
Wind  
Wind Speed 12 mph (South)    
Max Wind Speed 22 mph    
Max Gust Speed 28 mph    
Visibility 10 miles    
Events      
T = Trace of Precipitation, MM = Missing Value Source: NWS Daily Summary

Daily Weather History Graph

Daily Weather History Graph

Search for Another Location

Airport or City:

Trip Planner

Search our weather history database for the weather conditions in past years. The results will help you decide how hot, cold, wet, or windy it might be!

Date:

Astronomy

Nov. 08, 2010 Rise Set
Actual Time 6:53 AM CST 5:04 PM CST
Civil Twilight 6:25 AM CST 5:33 PM CST
Nautical Twilight 5:52 AM CST 6:05 PM CST
Astronomical Twilight 5:20 AM CST 6:37 PM CST
Moon 9:42 AM CST (11/8) 7:00 PM CST (11/8)
Length of Visible Light 11h 07m
Length of Day
10h 10m
Waxing Crescent, 8% of the Moon is Illuminated
Nov 8
Waxing Crescent
Nov 13
First Quarter
Nov 21
Full
Nov 28
Last Quarter
Dec 5
New

Hourly Weather History & Observations

Time (CST) Temp. Windchill Dew Point Humidity Pressure Visibility Wind Dir Wind Speed Gust Speed Precip Events Conditions
12:53 AM 50.0 °F - 32.0 °F 50% 29.93 in 10.0 mi South 11.5 mph - N/A   Clear
1:53 AM 48.0 °F - 32.0 °F 54% 29.91 in 10.0 mi South 10.4 mph - N/A   Clear
2:53 AM 46.9 °F - 32.0 °F 56% 29.89 in 10.0 mi South 11.5 mph - N/A   Clear
3:53 AM 46.9 °F - 32.0 °F 56% 29.87 in 10.0 mi South 12.7 mph - N/A   Clear
4:53 AM 46.0 °F 41.0 °F 32.0 °F 58% 29.86 in 10.0 mi South 10.4 mph - N/A   Clear
6:53 AM 44.1 °F 38.6 °F 33.1 °F 65% 29.86 in 10.0 mi South 10.4 mph - N/A   Clear
7:53 AM 45.0 °F 40.1 °F 34.0 °F 65% 29.86 in 10.0 mi South 9.2 mph - N/A   Clear
8:53 AM 51.1 °F - 36.0 °F 56% 29.86 in 10.0 mi South 18.4 mph - N/A   Clear
9:53 AM 55.9 °F - 37.9 °F 51% 29.85 in 10.0 mi SSW 18.4 mph 25.3 mph N/A   Clear
10:53 AM 61.0 °F - 39.0 °F 44% 29.84 in 10.0 mi SSW 17.3 mph - N/A   Clear
11:53 AM 63.0 °F - 39.0 °F 41% 29.82 in 10.0 mi SSW 18.4 mph - N/A   Clear
12:53 PM 64.9 °F - 39.9 °F 40% 29.81 in 10.0 mi SSW 16.1 mph 19.6 mph N/A   Clear
2:53 PM 66.9 °F - 41.0 °F 39% 29.79 in 10.0 mi South 13.8 mph - N/A   Clear
3:53 PM 66.9 °F - 39.9 °F 37% 29.78 in 10.0 mi South 10.4 mph - N/A   Clear
4:53 PM 61.0 °F - 41.0 °F 48% 29.79 in 10.0 mi SSW 8.1 mph - N/A   Clear
5:53 PM 60.1 °F - 39.0 °F 46% 29.80 in 10.0 mi South 5.8 mph - N/A   Clear
6:53 PM 57.9 °F - 39.0 °F 49% 29.81 in 10.0 mi South 6.9 mph - N/A   Clear
7:53 PM 57.0 °F - 39.0 °F 51% 29.81 in 10.0 mi South 6.9 mph - N/A   Clear
8:53 PM 55.9 °F - 39.9 °F 55% 29.81 in 10.0 mi South 5.8 mph - N/A   Clear
9:53 PM 54.0 °F - 39.9 °F 59% 29.81 in 10.0 mi South 6.9 mph - N/A   Clear
10:53 PM 53.1 °F - 41.0 °F 64% 29.80 in 10.0 mi South 10.4 mph - N/A   Clear
11:53 PM 53.1 °F - 41.0 °F 64% 29.80 in 10.0 mi South 11.5 mph - N/A   Clear